AO-07 1 07530U 74089B 15274.84993046 -.00000044 00000-0 -23425-5 0 9996 2 07530 101.5350 247.3471 0012378 94.5759 295.1318 12.53616751870629 FO-29 1 24278U 96046B 15274.49335907 .00000003 00000-0 37018-4 0 9993 2 24278 98.5548 228.9762 0350844 155.0989 301.5254 13.53056585944403 SO-33 1 25509U 98061B 15274.67967102 .00000413 00000-0 67360-4 0 9996 2 25509 31.4353 7.6539 0347879 287.1182 69.1630 14.30071729884671 RS-22 1 27939U 03042A 15274.54530715 .00000395 00000-0 80073-4 0 9997 2 27939 97.8542 71.7936 0014060 52.1581 308.0889 14.66160781641774 HO-68 1 36122U 09072B 15274.65138833 -.00000059 00000-0 -43517-4 0 9998 2 36122 100.1824 315.6066 0007049 231.4850 128.5637 13.16329503278464 AO-73 1 39444U 13066AE 15274.21340290 .00001220 00000-0 16126-3 0 9994 2 39444 97.7196 333.0366 0060437 148.8707 211.6109 14.80485820 99103 EO-79 1 40025U 14033R 15274.78443977 .00001174 00000-0 13595-3 0 9999 2 40025 97.9411 175.1509 0012379 188.8974 171.2024 14.87392400 69638 XW-2A 1 40903U 15049E 15274.77575881 .00002464 00000-0 12878-3 0 9997 2 40903 97.4551 282.7286 0023748 259.5842 207.2050 15.16592481 1798 XW-2C 1 40906U 15049H 15274.80520922 .00001993 00000-0 11899-3 0 9998 2 40906 97.4570 282.7003 0014888 208.6279 276.2861 15.12170585 1781 LILACSAT-2 1 40908U 15049K 15274.80946906 .00001096 00000-0 68066-4 0 9997 2 40908 97.4627 282.7046 0015749 201.4021 285.1229 15.11653528 1785 XW-2E 1 40909U 15049L 15274.86877524 .00003179 00000-0 18629-3 0 9996 2 40909 97.4574 282.7675 0014186 211.3768 269.8521 15.12430231 1797 UO-11 1 14781U 84021B 15274.40794058 .00000446 00000-0 61948-4 0 9998 2 14781 97.7896 328.8111 0010050 85.5553 274.6809 14.82517556697765 AO-16 1 20439U 90005D 15273.80756374 .00000073 00000-0 43028-4 0 9991 2 20439 98.5463 208.4798 0010228 203.3496 176.8739 14.32571853341865 LO-19 1 20442U 90005G 15274.07462931 .00000078 00000-0 44580-4 0 9997 2 20442 98.5171 207.9790 0011436 189.8964 170.1997 14.32762236342109 AO-27 1 22825U 93061C 15274.43786751 .00000057 00000-0 39384-4 0 9991 2 22825 98.7203 224.6336 0008559 5.6015 111.0960 14.29905535148127 IO-26 1 22826U 93061D 15274.86790915 .00000109 00000-0 59195-4 0 9996 2 22826 98.7146 225.2188 0008899 355.6488 4.4615 14.30225136148334 GO-32 1 25397U 98043D 15274.87047140 .00000040 00000-0 36062-4 0 9995 2 25397 98.5311 222.0243 0002015 49.8269 13.1472 14.23561706894976 NO-44 1 26931U 01043C 15273.94736509 .00000029 00000-0 43106-4 0 9999 2 26931 067.0498 264.2754 0006344 276.2897 083.7481 14.30345177730854 SO-50 1 27607U 02058C 15273.95462792 .00000536 00000-0 96404-4 0 9990 2 27607 064.5542 235.8087 0083195 268.0956 091.0617 14.74859105686755 CO-55 1 27844U 03031E 15274.79589763 .00000153 00000-0 89445-4 0 9998 2 27844 98.6965 281.8089 0009652 359.8716 0.2457 14.21850446635587 CO-57 1 27848U 03031J 15274.51998193 .00000124 00000-0 76544-4 0 9997 2 27848 98.7063 281.4993 0009719 8.3236 143.2218 14.21490797635456 AO-51 1 28375U 04025K 15274.77575836 .00000180 00000-0 66106-4 0 9995 2 28375 98.2999 212.1964 0083002 8.5598 351.6985 14.41699748591843 CP3 1 31129U 07012N 15274.18796847 .00000896 00000-0 20183-3 0 9995 2 31129 97.9937 235.4294 0096177 344.3593 130.9860 14.55962409448549 CO-65 1 32785U 08021C 15274.23176691 .00000892 00000-0 10506-3 0 9994 2 32785 97.6381 313.8379 0014877 78.3221 345.2726 14.87084368401996 PRISM 1 33493U 09002B 15274.88516691 .00001892 00000-0 18417-3 0 9990 2 33493 98.2428 117.4938 0016136 344.2886 15.7805 14.93756567362507 SOHLA-1 1 33496U 09002E 15274.45787645 .00000292 00000-0 55447-4 0 9993 2 33496 98.2269 43.3355 0006354 175.1480 226.7218 14.71432701358802 TISAT-1 1 36799U 10035E 15274.89072727 .00002065 00000-0 22605-3 0 9995 2 36799 98.0204 16.5587 0012209 212.2862 271.8046 14.88884303282836 STUDSAT 1 36801U 10035G 15273.88551613 .00017472 00000-0 93310-3 0 9992 2 36801 98.0727 39.5033 0006298 137.8576 222.3139 15.15175936283961 ALMASAT-1 1 38078U 12006B 15274.20330413 .00025559 32920-5 43034-3 0 9994 2 38078 69.4524 332.0648 0451170 110.2056 254.8177 14.85022900190743 CUBEBUG-1 1 39153U 13018D 15274.81867639 .00000913 00000-0 12926-3 0 9997 2 39153 98.0133 358.8668 0015892 268.4756 91.4635 14.79420558131248 ESTCUBE-1 1 39161U 13021C 15274.70530416 .00000552 00000-0 97427-4 0 9997 2 39161 98.0678 356.6846 0009470 344.0829 16.0082 14.71314425128907 DUCHIFAT-1 1 40021U 14033M 15274.80956968 .00001783 00000-0 19829-3 0 9999 2 40021 97.9433 175.6951 0012946 189.0252 171.0733 14.88389877 69669 NANOSATCBR1 1 40024U 14033Q 15274.83127850 .00001513 00000-0 17113-3 0 9990 2 40024 97.9413 175.4072 0012218 187.9037 172.1988 14.87926895 69651 DTUSAT-2 1 40030U 14033W 15274.70198088 .00001196 00000-0 13959-3 0 9995 2 40030 97.9397 174.7286 0011966 182.0868 178.0299 14.87019684 69609 ANTELSAT 1 40034U 14033AA 15274.77231948 .00000688 00000-0 11217-3 0 9999 2 40034 97.9292 164.4025 0060397 137.2333 223.3593 14.72907924 68983 MET-2/21 1 22782U 93055A 15274.23659352 -.00000005 00000-0 -17947-4 0 9996 2 22782 82.5506 159.5289 0023091 26.3556 91.1259 13.83777253115268 OKEAN-4 1 23317U 94066A 15274.56390315 .00000683 00000-0 73597-4 0 9994 2 23317 82.5402 345.4984 0019439 341.4579 86.2111 14.86835973133117 NOAA-14 1 23455U 94089A 15274.49035707 .00000019 00000-0 32791-4 0 9999 2 23455 98.7465 353.7263 0010280 133.4304 359.9277 14.14053711 70554 NOAA-15 1 25338U 98030A 15274.48406232 .00000072 00000-0 49384-4 0 9990 2 25338 98.7779 273.2195 0009896 215.2911 144.7614 14.25663948903986 RESURS 1 25394U 98043A 15273.92002374 -.00000031 00000-0 50245-5 0 9998 2 25394 098.4774 225.2481 0001346 018.0101 016.4119 14.24457423895317 FENGYUN1 1 25730U 99025A 15273.92957975 .00000640 00000-0 36250-3 0 9992 2 25730 098.9511 238.8075 0018959 201.7734 227.9227 14.13641302843956 OKEAN-0 1 25860U 99039A 15274.13254262 .00000419 00000-0 68243-4 0 9996 2 25860 98.1078 242.4374 0001387 66.5733 350.0091 14.76143591871613 NOAA-16 1 26536U 00055A 15274.51560124 .00000008 00000-0 28172-4 0 9997 2 26536 98.9321 340.3375 0009536 294.1018 65.9156 14.13109614774672 NOAA-17 1 27453U 02032A 15274.46350917 .00000029 00000-0 30102-4 0 9993 2 27453 98.3513 255.2549 0010684 227.6427 132.3849 14.24900749689792 NOAA-18 1 28654U 05018A 15274.40731791 .00000068 00000-0 62464-4 0 9990 2 28654 99.1914 269.6794 0014782 26.6626 333.5302 14.12236331534066 NOAA-19 1 33591U 09005A 15274.46021142 .00000148 00000-0 10540-3 0 9990 2 33591 99.0012 224.6497 0013120 228.4581 131.5465 14.11982614342488 HUBBLE 1 20580U 90037B 15274.88687542 .00001750 00000-0 10042-3 0 9994 2 20580 28.4694 170.3610 0002767 304.1476 132.6348 15.07728622195928 ISS 1 25544U 98067A 15274.52059144 -.00030987 00000-0 -46332-3 0 9999 2 25544 51.6452 273.2508 0006143 347.2559 155.7449 15.54065999964581 CO-58 1 28895U 05043F 15274.00795409 .00000499 00000-0 10619-3 0 9999 2 28895 97.8223 96.2703 0016286 326.1949 33.8214 14.62908753529067 FALCON 1 30776U 07006E 15273.85741044 .00008879 00000-0 34190-3 0 9999 2 30776 35.4264 58.0541 0000601 127.9713 0.5696 15.25673581472449 MAST 1 31126U 07012K 15274.84760862 .00000576 00000-0 13386-3 0 9995 2 31126 97.9741 238.1134 0090091 324.0127 66.4231 14.56156883449019 CAPE1 1 31130U 07012P 15274.11479247 .00000808 00000-0 18424-3 0 9990 2 31130 97.9954 234.7996 0096946 346.6784 13.1856 14.55626479448295 COMPASS 1 32787U 08021E 15274.71642281 .00001634 00000-0 16998-3 0 9998 2 32787 97.6402 319.0772 0014374 63.0756 297.1930 14.91110525402389 AAUSAT2 1 32788U 08021F 15274.09798500 .00001956 00000-0 19712-3 0 9990 2 32788 97.6412 320.1748 0013747 61.6100 298.6503 14.92193847402399 DO-64 1 32789U 08021G 15274.82195097 .00004089 00000-0 32597-3 0 9990 2 32789 97.6545 333.4626 0011219 67.9447 355.7342 15.00837228403074 CO-66 1 32791U 08021J 15274.07054961 .00001357 00000-0 14940-3 0 9991 2 32791 97.6399 315.9742 0015256 71.4821 288.8053 14.89073528402074 RS-30 1 32953U 08025A 15274.39638703 .00000010 00000-0 -13620-7 0 9996 2 32953 82.4984 268.1875 0017896 205.2973 154.7238 12.43063929333801 METEOR-M 1 35865U 09049A 15274.75996414 -.00000004 00000-0 17258-4 0 9995 2 35865 98.4903 311.2309 0003018 144.9446 339.7358 14.22049028313350 RS-38 1 35869U 09049E 15274.74908012 .00000036 00000-0 34891-4 0 9991 2 35869 98.4834 310.7993 0004784 151.8610 208.2807 14.22310703313407 JUGNU 1 37839U 11058B 15274.18429439 .00000376 00000-0 58668-4 0 9997 2 37839 19.9614 279.9195 0019141 134.0906 298.8743 14.12490836205223 SRMSAT 1 37841U 11058D 15273.51371520 .00000362 00000-0 54348-4 0 9999 2 37841 19.9725 312.8343 0012063 49.5507 99.1794 14.10498861204843 RAX-2 1 37853U 11061D 15274.83598510 .00003757 00000-0 23117-3 0 9992 2 37853 101.6986 178.3337 0193447 123.3658 238.6229 14.96972512213056 AUBIESAT 1 37854U 11061E 15274.45431878 .00003685 00000-0 22042-3 0 9990 2 37854 101.6917 181.8409 0184588 118.9084 243.0780 14.99127105213133 HRBE 1 37855U 11061F 15274.21512701 .00004116 00000-0 24248-3 0 9990 2 37855 101.6931 179.7778 0196269 122.2927 239.7460 14.97940021213021 HORYU-2 1 38340U 12025D 15274.86572400 .00001060 00000-0 16727-3 0 9992 2 38340 98.3258 247.6299 0013088 113.9783 246.2796 14.74514158181259 RS-40 1 38735U 12041C 15274.71702991 .00000040 00000-0 21992-3 0 9999 2 38735 82.4807 353.5572 0015745 310.5776 49.3934 12.42570209144146 PROITERES 1 38756U 12047B 15274.84343852 .00000391 00000-0 64760-4 0 9999 2 38756 98.2255 15.9690 0011491 322.3684 37.6715 14.75930352164735 BEESAT-3 1 39134U 13015E 15274.85208488 .00007433 00000-0 42399-3 0 9999 2 39134 64.8721 75.9710 0025245 238.5389 121.3267 15.13186655134837 BEESAT-2 1 39136U 13015G 15273.90398584 .00004886 00000-0 29698-3 0 9999 2 39136 064.8722 082.3153 0025295 237.0324 122.8367 15.11369952134244 ZACUBE-1 1 39417U 13066B 15274.82955190 .00001112 00000-0 14953-3 0 9998 2 39417 97.7189 333.2935 0061101 148.0053 212.4893 14.79918710100406 TRITON-1 1 39427U 13066M 15274.08676016 .00000716 00000-0 12434-3 0 9995 2 39427 97.7036 318.5533 0115381 188.2510 171.6802 14.66807400 99381 DELFIN3XT 1 39428U 13066N 15274.17831838 .00001198 00000-0 20519-3 0 9999 2 39428 97.7048 316.7685 0123624 193.5463 166.2414 14.65653024 99264 GOMX-1 1 39430U 13066Q 15274.57376501 .00000546 00000-0 10999-3 0 9994 2 39430 97.6959 309.9621 0152599 214.1754 144.9541 14.58218961 98887 MO-76 1 39436U 13066W 15274.19193212 .00017089 00000-0 10440-2 0 9994 2 39436 97.7376 351.2050 0021751 103.7855 256.5797 15.10151713101476 LO-74 1 39440U 13066AA 15274.19113230 .00000901 00000-0 13496-3 0 9991 2 39440 97.7128 327.1152 0082324 164.2515 196.1284 14.74717636 99959 PUCPSAT-1 1 39442U 13066AC 15274.48109498 .00001706 00000-0 18567-3 0 9994 2 39442 97.7298 342.0338 0034092 130.5712 229.8482 14.88913749 99687 SPROUT 1 39770U 14029E 15274.11162006 .00002399 00000-0 29333-3 0 9994 2 39770 97.8745 9.5144 0009226 208.7633 151.3072 14.84142860 73343 POPSAT-HIP1 1 40028U 14033U 15274.89940209 .00001036 00000-0 12104-3 0 9996 2 40028 97.9444 175.3672 0013511 187.4149 172.6904 14.87262076 69646 EO-80 1 40032U 14033Y 15274.78330602 .00001218 00000-0 14233-3 0 9996 2 40032 97.9405 174.8216 0011952 181.8933 178.2239 14.86946626 69611 VELOX-1 1 40057U 14034E 15274.70417547 .00001052 00000-0 16024-3 0 9996 2 40057 98.2110 354.5364 0010128 258.2628 101.7443 14.76081219 67590 DAURIA DX 1 1 40071U 14037C 15274.84774711 .00000486 00000-0 70924-4 0 9999 2 40071 98.3503 350.6146 0007462 256.8547 103.1828 14.80514594 66571 UKUBE-1 1 40074U 14037F 15274.88456388 .00001059 00000-0 13936-3 0 9999 2 40074 98.3523 351.7848 0003599 266.5580 93.5207 14.82444483 66641 HODOYOSHI-1 1 40299U 14070B 15274.75491330 .00002802 00000-0 13282-3 0 9998 2 40299 97.4516 354.9501 0014829 117.0226 342.0941 15.20040120 50001 CHUBUSAT-1 1 40300U 14070C 15274.89150351 .00003192 00000-0 15814-3 0 9997 2 40300 97.4487 354.0607 0023183 120.5330 343.7177 15.18252410 49963 QSAT-EOS 1 40301U 14070D 15274.89048071 .00005866 00000-0 28668-3 0 9994 2 40301 97.4442 353.3057 0032514 122.1238 341.4878 15.18148959 49920 TSUBAME 1 40302U 14070E 15274.86582233 .00003263 00000-0 18122-3 0 9998 2 40302 97.4412 351.4414 0043644 127.9607 6.8261 15.13604441 49806 FIREBIRD FU3 1 40377U 15003B 15274.79034831 .00004949 00000-0 24391-3 0 9992 2 40377 99.1064 328.0375 0153277 264.0533 94.3204 15.08831096 36617 FIREBIRD FU4 1 40378U 15003C 15274.78762485 .00004977 00000-0 24501-3 0 9999 2 40378 99.1062 328.0423 0153590 264.0113 94.3590 15.08831646 36611 GRIFEX 1 40379U 15003D 15274.81626355 .00004531 00000-0 22870-3 0 9992 2 40379 99.1082 327.8528 0155139 265.6985 92.6498 15.07897429 36609 LAMBDA-SAT 1 40458U 98067GB 15136.30676273 .20783109 12527-4 14817-2 0 9995 2 40458 051.6075 233.7697 0010355 318.5347 043.1720 16.39926603 21161 NO-84 1 40654U 15274.52314853 .00019595 00000-0 47580-3 0 01391 2 40654 054.9903 118.3236 0240335 149.8850 211.6279 15.16454582020299 NO-83 1 40655U 15274.52817050 .00025749 00000-0 60772-3 0 01452 2 40655 054.9918 117.6947 0235954 150.2526 211.2206 15.17763789020305 DEORBITSAIL 1 40719U 15032E 15274.16886855 .00001522 00000-0 23480-3 0 9998 2 40719 98.0421 162.7657 0017243 356.7464 3.3622 14.74743463 12151 NUDT-PHONESAT 1 40900U 15049B 15274.79534449 .00005496 00000-0 31143-3 0 9995 2 40900 97.4492 282.6977 0014495 233.1455 245.3845 15.13317847 1795 XM-2D 1 40907U 15049J 15274.80552346 .00002044 00000-0 12212-3 0 9992 2 40907 97.4537 282.6951 0014305 206.7478 277.6885 15.12120090 1787 XM-2F 1 40910U 15049M 15274.80692306 .00003132 00000-0 18576-3 0 9995 2 40910 97.4569 282.6980 0015736 205.6656 279.7227 15.11975921 1674 XM-2B 1 40911U 15049N 15274.80551131 .00002307 00000-0 13732-3 0 9998 2 40911 97.4582 282.7023 0014231 206.7930 278.0044 15.12132950 1683 DCBB 1 40912U 15049P 15274.72508566 .00003576 00000-0 20166-3 0 9992 2 40912 97.4573 282.6491 0016223 204.6125 267.0771 15.13705480 1677 TW-1C 1 40926U 15051B 15274.80157966 .00009876 00000-0 34347-3 0 9998 2 40926 97.3110 310.1964 0015118 256.0739 194.3702 15.29806726 1010 TW-1C 1 40928U 15051D 15274.79996284 .00005703 00000-0 19800-3 0 9994 2 40928 97.3043 310.1926 0013171 266.3013 182.6355 15.30086716 1016 OB A PSLV-C30 1 40930U 15052A 15272.72039910 -.00004126 00000-0 -67328-3 0 9991 2 40930 5.9936 19.0146 0012135 12.6829 347.3528 14.76107032 239 OB B PSLV-C30 1 40931U 15052B 15272.72016628 .00000445 00000-0 -27196-4 0 9992 2 40931 5.9996 19.0388 0013165 16.6402 343.4213 14.76347078 222 OB C PSLV-C30 1 40932U 15032C 15272.71993296 -.00005951 00000-0 -92159-3 0 9993 2 40932 6.0063 19.0682 0013757 19.3578 340.6978 14.76573798 225 OB D PSLV-C30 1 40933U 15052D 15272.71976303 -.00001422 00000-0 -28717-3 0 9994 2 40933 6.0014 19.0357 0014384 20.5024 339.5740 14.76741934 221 OB E PSLV-C30 1 40934U 15052E 15272.72055363 .00003575 00000-0 41662-3 0 9993 2 40934 6.0080 19.0525 0011391 17.5351 342.5114 14.75975255 195 OB F PSLV-C30 1 40935U 15052F 15272.72073021 .00010714 00000-0 14328-2 0 9996 2 40935 6.0018 19.0175 0010541 12.9399 347.0894 14.75799588 205 OB G PSLV-C30 1 40936U 15052G 15272.72077914 -.00003213 00000-0 -54851-3 0 9996 2 40936 6.0026 19.0020 0010697 12.4851 347.5496 14.75737372 211 /EX
